Theta_e
309 310 310 311 313 318 320 320 317 315 314 312 310 313 310 308 305 308 309 309 311 311 307 311 311 310 310 310 310 312 317 318 317 317 316 312 313 312 312 312 314 319 326 329 332
309 309 309 310 311 315 318 320 317 315 314 311 309 312 310 308 307 308 306 310 309 306 308 311 307 308 307 308 309 312 315 316 314 313 313 312 311 311 313 314 315 318 330 330 329
307 308 308 308 309 313 316 318 316 315 313 310 309 310 309 306 308 307 309 309 310 311 312 307 307 306 306 305 307 309 313 313 313 312 313 312 311 310 312 315 316 319 322 329 328
308 308 308 308 308 310 313 317 316 314 312 309 309 309 308 307 309 309 309 311 313 308 307 305 305 305 305 304 304 306 307 309 311 311 310 310 310 310 310 311 313 314 322 323 327
308 308 307 307 308 310 314 316 315 312 311 309 307 309 307 308 308 313 312 313 309 306 305 304 304 304 304 303 303 303 303 304 305 306 306 305 306 309 309 309 310 312 316 321 323
308 308 307 307 308 309 311 317 314 311 309 307 310 307 307 304 310 310 309 310 307 305 304 305 305 305 304 304 304 303 305 305 306 306 305 305 305 306 307 307 309 310 312 320 321
308 308 307 307 307 311 313 313 313 310 309 310 307 308 308 302 305 306 308 306 305 305 305 305 305 305 305 305 304 305 305 305 305 306 307 306 306 305 305 307 309 310 311 319 320
308 308 307 307 307 310 314 312 310 309 309 309 308 309 307 305 305 304 304 304 305 305 305 304 304 305 305 304 305 305 304 305 305 306 306 307 307 304 304 306 308 308 309 315 319
308 308 307 306 307 308 312 308 306 307 307 308 309 308 306 303 303 304 304 304 305 305 305 305 305 305 305 306 306 305 304 306 307 306 307 307 307 305 304 305 307 307 308 312 315
307 307 306 305 306 310 307 305 307 308 308 309 308 306 305 306 303 303 303 305 305 306 307 306 305 304 305 308 304 300 306 307 308 307 307 308 307 305 304 305 305 305 307 313 316
306 306 302 312 311 309 307 310 308 308 308 305 306 306 305 304 304 304 304 304 304 304 305 306 305 305 304 305 304 305 306 306 306 308 309 308 307 306 305 308 308 310 306 313 316
306 305 303 309 308 307 307 307 305 305 306 306 306 306 306 306 307 306 305 305 306 305 306 306 307 306 305 306 306 309 310 309 308 307 309 310 308 307 307 309 309 312 313 314 316
305 304 302 309 307 306 306 306 305 305 306 307 306 308 307 306 308 307 305 307 308 309 308 308 307 309 309 309 310 309 309 309 307 309 309 309 309 307 307 309 309 311 313 314 314
305 303 304 306 307 306 307 306 305 304 307 308 308 308 307 306 310 307 307 308 309 308 310 308 308 309 310 311 310 310 308 311 313 311 307 309 313 311 310 310 312 311 313 313 316
307 308 307 307 306 306 306 305 305 304 305 307 309 307 308 310 310 309 306 306 311 311 309 312 311 312 309 308 308 310 308 310 311 314 313 312 315 319 317 318 317 316 312 313 318
306 306 307 307 306 305 306 305 305 307 300 303 309 310 310 310 312 309 308 307 308 310 310 310 310 310 311 311 312 314 312 314 314 315 317 317 316 320 317 316 315 317 317 319 322
306 307 306 306 304 305 305 304 304 299 302 307 308 311 311 313 313 313 314 313 315 314 309 314 313 311 311 316 315 314 314 318 317 317 323 318 319 318 314 316 316 317 314 321 324
306 307 305 304 303 304 305 302 301 307 307 309 311 311 312 312 312 314 316 316 315 314 312 315 308 314 316 315 315 314 316 321 324 323 324 319 320 316 314 315 316 316 318 320 318
305 304 303 304 304 304 302 302 303 308 309 311 310 311 312 311 311 312 313 314 313 311 314 317 313 314 315 316 318 319 321 315 321 321 318 320 317 315 311 314 316 318 316 315 314
304 304 303 303 304 304 302 307 305 307 309 309 311 310 311 311 312 313 314 313 313 312 312 315 318 316 317 317 317 319 316 318 317 323 324 320 319 318 312 313 315 315 314 314 312
304 305 303 303 303 301 303 306 308 308 310 311 311 310 310 311 311 312 313 313 312 312 311 313 317 315 316 316 315 315 316 314 313 315 321 321 321 309 310 315 314 312 313 312 309
303 305 303 303 302 303 305 308 308 309 310 311 310 310 311 311 312 312 314 314 311 311 313 311 313 311 316 313 312 312 314 312 312 317 313 315 318 313 312 313 311 311 311 309 308
303 304 304 304 302 303 307 309 310 311 311 311 311 311 311 312 313 312 313 312 312 312 311 310 310 309 310 309 309 314 312 313 313 310 312 313 319 310 309 309 309 309 309 308 307
302 305 301 301 302 305 309 309 310 310 311 310 311 310 310 311 311 312 312 312 312 310 312 311 310 310 310 311 312 311 312 311 311 308 313 312 311 309 309 309 308 307 306 305 305
303 302 301 300 304 307 307 309 310 312 310 310 311 310 311 311 311 311 310 310 311 311 311 310 310 306 311 312 311 309 311 311 308 311 308 310 311 308 308 307 307 306 305 303 302
307 302 301 302 304 307 308 310 309 310 311 311 311 310 309 311 311 312 311 310 311 309 310 308 309 310 311 309 309 308 308 310 311 311 310 310 311 306 305 306 306 305 303 301 299
307 305 302 303 303 305 306 310 310 311 310 309 310 310 310 310 308 306 306 308 309 310 309 309 308 307 312 309 308 309 308 309 309 309 310 312 309 307 308 308 307 306 303 300 298
Wind_Speed
13 14 14 15 14 11 12 16 15 12 9 6 3 5 2 3 5 3 3 1 2 4 2 4 3 6 3 1 3 2 2 10 4 5 7 11 12 12 10 9 8 3 5 7 23
13 12 13 14 12 13 16 22 16 12 10 7 3 5 3 2 5 8 5 5 2 1 2 6 4 3 1 1 2 3 3 4 4 7 10 13 9 14 10 11 9 6 5 9 15
12 13 12 13 13 14 9 17 15 14 12 6 5 7 4 1 2 2 7 6 5 5 1 6 7 3 3 2 2 4 6 7 12 13 14 14 14 8 5 5 8 9 4 6 6
10 13 11 13 14 16 17 14 19 16 14 8 6 7 4 1 3 3 8 8 7 4 4 3 3 0 1 3 4 5 6 9 9 9 9 12 8 13 5 7 11 11 3 2 4
11 12 13 13 14 16 11 8 22 18 13 9 8 8 4 2 0 12 10 10 8 4 4 4 2 2 1 4 6 3 5 8 8 8 9 12 9 11 17 8 13 11 15 3 5
11 10 12 14 15 15 16 16 20 17 13 9 11 8 2 5 12 13 10 11 6 2 1 2 3 2 2 3 3 5 9 10 9 12 10 13 13 6 17 7 13 13 11 8 4
11 10 12 14 17 21 9 22 19 16 14 13 11 6 0 3 9 11 11 6 6 2 2 14 9 5 4 5 5 5 6 12 11 11 12 10 17 16 10 11 14 15 10 9 7
9 9 10 12 11 11 22 20 18 16 13 11 10 2 2 5 7 9 9 6 5 3 3 5 5 2 1 2 6 5 4 5 3 6 8 6 19 19 9 10 17 11 13 12 8
6 7 10 14 11 9 23 20 16 13 12 10 6 1 3 4 5 9 10 7 12 6 3 1 3 2 5 2 3 2 4 7 12 9 11 9 17 22 14 13 17 12 14 13 8
5 8 13 20 12 9 23 23 18 17 11 6 2 2 3 3 7 11 9 6 3 6 2 1 3 2 0 3 3 5 4 8 12 6 15 16 19 19 12 10 16 19 14 11 8
5 9 14 12 28 29 33 19 7 4 3 3 4 1 7 8 8 1 5 5 1 1 2 1 1 7 9 8 7 9 13 17 18 20 17 15 14 18 15 6 11 17 16 10 6
8 8 11 29 28 29 18 4 3 1 4 4 4 3 6 4 4 6 7 3 3 3 2 3 9 10 9 10 13 12 16 18 16 15 11 12 16 9 10 5 13 13 9 8 3
7 6 8 15 20 14 12 5 5 6 4 1 3 2 3 4 0 4 6 2 1 2 5 7 3 8 5 11 12 12 13 14 12 12 8 2 7 11 5 12 19 18 7 7 8
10 7 11 11 8 6 2 2 2 5 4 1 3 2 3 0 4 7 6 2 2 1 2 6 6 9 8 11 12 11 9 7 8 5 3 5 5 3 4 11 14 13 6 7 7
21 26 23 7 14 4 1 5 4 3 5 4 3 1 4 2 8 2 6 3 3 3 2 2 3 6 6 7 8 9 7 3 14 6 4 6 4 5 8 5 4 6 9 7 7
19 21 15 11 9 5 6 2 3 4 1 3 3 3 3 4 6 5 2 1 1 2 6 7 3 3 5 8 11 9 4 8 1 2 4 4 9 2 3 5 6 6 3 8 8
18 15 19 9 3 7 7 2 4 6 3 2 4 4 5 5 6 8 5 4 3 1 3 5 5 4 5 6 2 3 2 3 3 4 3 8 5 0 9 7 7 6 7 4 5
16 15 17 14 8 5 2 4 9 2 4 3 3 3 3 4 4 8 3 2 5 4 2 5 6 3 4 5 4 2 3 2 4 3 2 3 4 6 13 9 4 4 6 9 14
19 18 11 10 5 4 3 6 5 2 3 2 2 2 3 2 2 4 4 4 1 2 1 4 4 3 7 5 3 2 2 2 2 1 3 4 2 2 16 14 11 11 9 13 13
9 9 9 11 6 6 4 4 3 3 4 3 2 5 2 3 1 3 1 3 4 2 2 3 4 5 3 4 6 5 2 3 2 3 4 3 3 5 10 9 10 11 17 18 11
7 3 10 11 6 4 3 3 3 2 2 3 4 6 4 3 5 4 4 1 4 5 3 3 2 6 2 3 4 5 4 3 1 4 1 1 4 1 5 12 17 18 9 9 6
5 3 4 18 3 1 2 1 2 3 2 3 2 3 4 6 5 2 2 1 4 4 2 1 2 3 2 4 3 3 5 2 3 5 3 3 4 4 10 6 9 11 12 10 8
3 1 5 4 3 3 1 2 3 5 4 5 5 3 2 2 2 2 2 3 3 3 3 4 3 3 8 6 6 4 11 3 3 3 4 4 3 4 9 9 8 10 9 8 9
3 2 3 2 1 2 3 1 2 1 2 3 3 3 2 2 4 2 1 4 3 1 4 0 3 3 5 5 5 6 12 8 5 4 3 4 6 4 5 6 6 6 7 7 8
1 1 4 2 3 2 2 3 2 1 2 3 2 5 3 3 3 4 4 6 3 4 2 3 2 3 2 3 2 4 5 10 6 5 5 7 5 3 3 4 4 5 6 7 9
2 2 3 3 2 1 2 1 1 2 2 4 3 4 6 3 2 1 3 3 1 6 4 4 1 2 2 3 2 3 7 7 8 11 7 8 4 5 4 5 5 5 6 6 6
6 3 3 4 4 1 3 1 1 2 2 1 2 0 2 1 4 5 5 3 2 1 3 2 3 2 3 2 2 4 2 2 2 3 6 4 5 6 4 5 3 3 4 4 2
Wind_Direction
310 321 324 325 317 304 303 217 211 208 208 216 232 201 224 295 319 296 272 190 135 210 274 355 267 276 254 310 329 16 220 238 240 249 283 305 308 314 300 303 305 191 138 157 152
308 314 318 321 312 302 341 210 207 194 203 208 203 190 215 304 300 280 244 171 127 284 143 304 11 322 64 291 251 156 240 229 249 288 290 296 312 324 349 339 326 357 53 118 149
316 313 314 315 314 308 297 204 195 187 184 193 189 175 203 313 267 130 117 141 126 108 54 39 8 36 16 324 252 231 243 278 279 284 283 293 303 303 355 322 308 332 288 156 132
315 314 316 318 314 309 309 270 191 179 178 181 192 168 171 161 99 149 140 135 127 79 84 44 346 15 278 319 292 283 277 266 268 268 290 289 296 292 271 263 294 315 209 126 170
297 310 316 319 316 304 302 263 175 173 162 161 181 162 155 143 141 142 133 134 113 89 13 45 39 360 316 333 349 298 302 313 316 315 300 303 291 278 284 275 292 300 307 292 212
279 301 318 321 320 304 295 185 158 152 151 154 163 158 155 107 140 150 139 144 136 96 60 66 25 14 17 330 359 327 337 315 311 300 287 285 294 267 276 305 286 288 291 268 247
272 296 317 327 328 315 208 158 152 137 137 150 156 139 57 116 140 140 154 158 141 118 56 49 58 58 1 328 4 351 329 305 281 275 270 287 277 267 263 285 274 277 282 280 242
285 296 317 325 336 33 145 136 129 133 137 149 153 150 105 142 152 160 171 164 124 149 81 51 62 89 74 338 355 340 316 303 325 282 261 207 262 258 253 251 265 260 269 264 251
306 314 320 317 303 329 140 134 133 132 145 141 151 180 131 138 142 175 192 191 169 161 141 233 81 104 20 53 336 300 270 249 288 257 254 209 251 260 250 251 266 269 252 253 244
350 349 334 311 284 129 124 117 116 118 125 127 145 77 171 156 145 190 208 198 119 160 183 51 56 74 335 149 235 234 250 279 278 271 296 282 245 248 240 240 250 262 260 238 237
29 14 3 19 141 133 117 118 109 85 234 172 229 59 117 97 132 151 166 123 147 219 207 164 49 219 214 208 243 271 274 275 276 281 285 284 256 250 240 237 281 282 245 225 223
64 37 31 112 117 132 115 71 53 153 123 299 2 24 91 155 145 180 165 149 168 205 68 354 257 253 228 236 267 264 283 275 280 271 275 289 264 255 226 248 270 264 212 219 237
58 77 97 93 130 118 92 101 25 19 106 86 275 298 149 145 132 147 142 73 80 248 213 215 213 329 243 238 255 253 258 273 257 300 260 272 284 248 230 195 244 259 210 212 206
47 165 152 144 107 130 59 331 31 7 92 98 218 163 115 266 57 117 90 95 143 269 241 249 241 255 271 259 239 275 249 252 289 287 260 84 294 312 292 260 219 223 195 191 190
75 103 119 147 135 123 217 189 7 28 74 260 112 156 159 169 156 98 114 80 207 195 166 266 236 227 249 243 182 238 238 245 269 219 284 225 237 332 346 227 334 288 230 210 185
106 98 109 91 68 88 130 108 348 52 308 304 146 194 196 199 177 128 166 66 34 226 216 252 296 236 229 257 254 273 345 290 134 173 249 246 187 356 344 285 298 317 357 170 166
119 104 80 75 75 94 124 45 53 86 279 271 218 186 234 195 191 170 185 195 208 3 269 197 227 230 215 264 223 71 284 275 176 217 19 100 154 115 312 301 270 307 336 180 162
116 105 89 86 101 70 355 66 69 169 205 209 201 205 250 174 207 192 153 268 226 251 287 354 333 229 161 201 248 234 217 319 352 35 51 81 1 348 338 3 340 24 327 87 54
114 82 58 36 54 11 64 54 169 252 281 157 350 248 272 229 177 170 151 4 208 89 146 3 287 279 231 218 217 357 306 245 271 286 82 350 41 346 11 29 32 52 53 64 66
76 67 33 4 9 9 66 111 85 331 327 331 258 194 107 348 87 139 94 350 316 352 140 295 302 226 275 223 243 206 224 294 37 36 66 352 42 22 1 28 63 78 61 54 52
42 58 344 349 341 45 99 90 126 248 56 37 325 10 37 349 29 45 1 245 352 303 172 281 201 299 7 341 307 341 334 304 165 146 133 52 55 331 30 53 61 63 68 89 57
55 62 342 351 35 41 66 84 270 323 307 314 274 357 2 17 18 67 86 289 332 310 337 279 245 293 248 269 292 272 295 359 83 11 62 88 45 230 185 207 100 81 74 72 64
74 68 303 338 71 350 252 87 48 24 1 0 352 348 315 320 74 36 68 262 339 10 356 347 350 2 346 348 352 358 336 300 112 60 23 91 95 17 57 69 71 79 72 71 65
101 24 321 12 225 292 19 47 111 260 290 321 290 294 309 337 42 76 8 220 266 271 216 50 38 130 167 224 253 327 346 7 83 76 67 56 131 50 64 80 73 71 60 55 45
52 219 195 294 329 83 67 336 105 57 316 255 335 29 308 37 2 26 352 1 284 344 327 111 87 60 300 228 331 333 357 12 68 155 109 173 119 160 136 107 93 86 60 45 39
1 81 354 286 309 111 26 256 126 163 43 342 58 42 41 69 86 9 321 32 67 324 6 11 185 62 303 353 102 32 0 20 51 78 84 117 117 162 150 108 79 76 65 53 35
337 329 99 295 312 72 230 166 51 49 298 34 306 299 68 271 303 279 291 249 254 3 334 33 131 94 270 328 15 337 296 21 76 42 149 183 186 153 130 129 155 148 109 107 195